Temperature
5 5 5 5 5 4 4 3 3 4 4 6 7 7 7 7 6 5 4 3 3 3 4 4 4 5 5 5 5 5 6 6 6 6 6 6 6 6 5 5 5 5 4 3
5 5 5 5 5 5 5 5 5 5 6 7 8 8 7 6 5 3 2 2 2 2 3 3 3 3 4 4 4 4 4 4 4 4 4 4 4 4 3 3 2 2 2 2
4 5 5 5 5 5 5 5 5 6 7 7 7 7 6 5 4 2 2 1 1 1 1 2 2 2 3 2 2 3 3 2 2 3 2 2 2 2 1 1 1 1 1 0
5 5 5 6 7 6 6 6 6 7 7 7 7 6 5 4 3 2 2 1 1 1 1 1 1 1 2 1 1 1 1 1 1 1 1 0 0 0 -0 -0 -0 -0 -0 -0
5 5 5 6 7 7 6 7 7 7 7 7 6 5 4 4 3 2 1 1 0 -0 0 0 0 0 1 0 0 0 -0 -0 -1 -0 -1 -1 -1 -1 -1 -1 -1 -1 -0 -1
5 5 5 7 8 8 8 8 8 7 7 7 5 5 5 3 2 2 1 0 -0 -0 -0 -0 -0 -0 -0 -0 -1 -1 -1 -1 -1 -1 -1 -1 -1 -1 -1 -1 -1 -1 -1 -1
5 5 5 7 8 8 8 8 9 8 8 6 5 5 4 3 2 1 1 0 -0 -1 -1 -1 -1 -1 -1 -1 -1 -1 -1 -1 -1 -1 -1 -1 -1 -1 -1 -1 -1 -1 -1 -2
5 5 6 8 7 7 8 9 8 8 7 6 5 4 3 3 2 1 0 -0 -0 -1 -1 -1 -1 -1 -1 -1 -1 -1 -1 -1 -1 -1 -1 -1 -1 -1 -1 -1 -1 -2 -2 -3
5 6 7 8 8 9 9 8 8 7 7 6 5 4 3 2 1 1 1 0 -0 -1 -1 -1 -1 -1 -1 -1 -1 -1 -1 -1 -1 -1 -1 -1 -1 -1 -2 -2 -2 -3 -3 -4
5 5 7 8 9 9 8 8 8 7 6 6 5 4 3 2 2 1 1 0 -0 -0 -1 -1 -1 -1 -1 -1 -1 -1 -1 -1 -1 -1 -1 -1 -2 -2 -2 -3 -3 -3 -4 -4
5 6 7 9 8 8 8 8 7 7 6 5 5 4 3 3 2 2 1 1 1 0 0 -0 -0 -0 -1 -1 -1 -1 -1 -1 -1 -1 -2 -2 -2 -2 -3 -3 -4 -4 -4 -5
6 6 6 7 8 8 7 7 6 6 5 5 4 4 3 3 2 2 2 1 1 1 1 0 -0 -0 -0 -1 -1 -1 -1 -1 -1 -2 -2 -2 -3 -3 -3 -4 -4 -5 -5 -6
6 6 6 7 7 7 7 6 6 5 5 5 4 3 3 3 2 2 2 2 1 1 1 1 0 -0 -0 -1 -1 -1 -1 -1 -2 -2 -2 -3 -3 -3 -4 -4 -5 -5 -6 -6
5 6 6 6 6 6 6 5 5 5 4 4 4 3 3 2 2 2 2 2 1 1 1 1 0 0 -0 -0 -1 -1 -1 -2 -2 -2 -3 -3 -3 -4 -4 -5 -5 -6 -6 -7
5 5 5 5 5 5 5 4 4 4 4 3 3 3 3 2 2 2 2 1 1 1 1 1 0 0 -0 -0 -1 -1 -2 -2 -2 -2 -3 -3 -4 -4 -5 -5 -6 -6 -7 -7
4 4 4 4 4 4 4 4 3 3 3 3 3 2 2 2 2 1 1 1 1 1 1 1 0 0 -0 -1 -1 -1 -2 -2 -2 -3 -3 -4 -4 -5 -5 -6 -6 -7 -7 -8
2 2 2 3 3 3 3 3 3 3 3 3 3 2 2 2 1 1 1 1 1 1 1 0 0 -0 -0 -1 -1 -2 -2 -2 -3 -3 -4 -4 -5 -5 -6 -6 -7 -7 -8 -8
1 1 1 1 2 3 3 3 3 3 3 3 2 2 2 2 2 2 1 1 1 0 0 0 -0 -0 -1 -1 -1 -2 -2 -3 -3 -4 -4 -5 -5 -6 -6 -7 -7 -8 -8 -8
0 1 1 2 2 2 3 3 3 3 3 3 2 2 2 2 1 1 1 1 1 1 0 0 -0 -1 -1 -1 -2 -2 -2 -3 -3 -4 -4 -5 -6 -6 -7 -7 -8 -8 -8 -8
0 1 1 2 2 2 3 3 3 3 3 2 2 2 2 2 1 1 1 1 1 1 0 -0 -0 -1 -1 -2 -2 -2 -3 -3 -4 -4 -5 -5 -6 -6 -7 -7 -8 -8 -8 -8
0 1 1 2 2 2 2 2 2 2 2 2 2 2 2 1 1 1 1 1 1 0 -0 -1 -1 -1 -1 -2 -2 -3 -3 -4 -4 -4 -5 -5 -6 -7 -7 -8 -8 -8 -8 -9
1 1 1 1 1 2 1 1 1 1 1 1 1 1 1 1 1 1 1 1 1 0 -0 -1 -1 -1 -2 -2 -2 -3 -3 -4 -4 -5 -5 -6 -6 -7 -7 -8 -8 -8 -8 -9
0 1 1 1 1 1 1 1 1 1 1 1 1 1 1 1 1 1 1 1 0 -0 -0 -1 -1 -2 -2 -2 -3 -3 -4 -4 -4 -5 -5 -6 -6 -7 -7 -8 -8 -8 -8 -9
0 0 0 0 0 0 0 0 0 0 0 0 0 0 0 0 1 1 0 0 -0 -0 -1 -1 -2 -2 -2 -3 -3 -3 -4 -4 -5 -5 -6 -6 -7 -7 -7 -8 -8 -8 -8 -8
-1 -1 -1 -1 -0 -1 -1 -1 -1 -1 -1 -0 -0 -0 -0 -0 0 0 -0 -0 -1 -1 -1 -2 -2 -2 -2 -3 -3 -3 -4 -4 -5 -5 -6 -6 -7 -7 -7 -8 -8 -8 -8 -8
-1 -1 -1 -1 -2 -2 -2 -2 -1 -1 -1 -1 -1 -1 -1 -1 -1 -1 -1 -1 -1 -1 -1 -2 -2 -2 -3 -3 -3 -4 -4 -4 -5 -5 -6 -6 -7 -7 -7 -8 -8 -8 -8 -8
-2 -2 -2 -2 -2 -2 -2 -2 -2 -2 -2 -2 -2 -1 -1 -1 -1 -2 -2 -2 -2 -2 -2 -2 -3 -3 -3 -3 -4 -4 -4 -5 -5 -5 -6 -6 -7 -7 -7 -8 -8 -8 -8 -8
Wind_Speed
3 2 4 5 7 9 9 9 9 8 8 14 12 11 9 6 6 7 8 8 9 9 9 9 9 8 8 8 8 7 8 8 9 10 11 12 13 13 14 14 15 15 16 15
1 1 4 5 9 11 11 10 12 12 14 15 10 6 5 5 5 6 7 8 8 9 9 9 8 7 7 8 8 8 10 10 10 12 13 14 14 15 15 15 15 15 15 14
1 3 2 7 10 13 8 8 9 13 13 10 9 9 5 3 3 5 5 6 7 7 7 7 6 6 7 8 9 10 11 11 11 13 14 13 14 14 14 14 14 14 14 13
0 1 5 6 3 8 9 9 11 10 11 9 8 4 1 1 1 3 4 5 5 5 5 5 6 6 7 8 9 10 11 11 11 12 13 13 13 14 13 12 12 12 12 11
1 3 7 7 3 6 6 6 8 12 13 9 2 1 2 2 1 1 2 3 3 4 4 6 7 7 8 9 9 10 10 10 10 11 12 12 12 12 11 11 11 10 9 9
2 3 5 4 1 3 3 4 4 6 8 5 1 3 2 4 3 3 3 4 4 5 6 7 7 7 9 9 9 9 9 9 9 10 11 11 11 10 9 10 10 9 9 8
4 4 7 7 3 4 2 3 2 4 5 4 5 4 3 5 4 3 4 5 5 6 6 6 6 7 9 8 8 7 8 9 10 10 10 10 10 9 9 9 10 9 9 8
5 5 8 3 5 5 5 2 2 3 3 3 4 5 5 5 5 5 5 5 5 6 6 6 6 7 8 7 6 7 9 9 9 9 8 8 9 9 8 8 9 7 7 6
7 8 5 2 5 5 3 4 4 3 2 3 5 5 6 6 6 5 5 5 5 6 6 6 6 6 7 5 6 8 9 9 9 9 8 8 8 8 7 6 6 5 4 4
5 8 7 8 7 5 4 5 3 3 3 5 5 6 7 7 7 6 5 5 5 6 6 5 5 6 6 5 6 8 9 8 7 8 8 7 6 5 5 5 5 4 4 3
6 7 7 5 3 3 2 1 1 1 3 5 7 7 7 7 7 7 6 5 5 6 6 6 5 5 5 6 7 8 8 7 7 7 7 6 6 5 5 3 4 3 2 1
5 4 3 5 3 1 2 2 3 3 2 4 6 8 8 8 7 7 7 6 6 6 6 6 6 6 5 5 7 8 7 6 5 5 5 5 5 5 8 7 8 7 5 2
3 3 3 4 3 1 1 2 2 4 5 5 5 7 8 7 7 8 8 8 7 7 7 6 6 6 4 5 6 7 7 5 4 4 4 4 3 4 3 5 7 8 8 7
2 3 3 3 3 3 1 1 2 2 3 5 6 7 8 7 8 8 8 8 8 8 7 7 7 5 4 6 7 7 6 6 5 4 4 4 3 3 3 3 3 3 6 8
4 4 5 5 3 2 0 2 2 3 4 5 6 7 8 9 9 8 7 8 8 8 7 7 7 5 5 6 7 7 6 4 4 4 4 4 3 3 3 2 2 2 3 5
8 6 4 4 4 3 2 3 4 5 5 6 7 7 8 8 8 8 8 9 9 9 8 7 7 6 6 7 7 6 5 7 6 4 4 3 3 2 2 1 2 3 3 4
5 5 4 5 5 5 5 6 6 6 7 8 8 8 8 9 8 8 7 7 6 7 7 7 7 6 6 7 7 5 5 5 7 4 3 2 2 1 0 1 2 3 3 5
6 7 8 8 8 8 7 6 6 7 7 7 8 9 10 10 10 9 8 7 7 6 5 6 7 7 7 7 6 5 5 4 3 3 2 2 1 1 1 2 3 4 4 5
6 7 7 7 7 6 5 5 5 6 6 8 10 10 9 8 8 9 9 9 9 8 6 7 11 8 7 7 7 5 5 5 3 2 2 2 1 1 1 2 3 4 4 5
7 7 7 6 5 3 3 2 3 5 6 8 9 8 8 8 9 10 9 8 7 5 7 9 8 7 7 7 8 5 5 5 4 3 2 2 2 2 2 3 4 4 4 5
7 7 7 6 5 4 2 0 3 5 6 8 9 9 9 8 9 9 9 7 5 7 9 12 8 6 6 7 8 5 5 4 4 3 3 3 3 3 3 4 4 4 5 5
7 7 7 6 5 5 3 1 1 3 5 6 7 7 8 9 9 8 7 5 7 11 9 7 6 9 10 9 5 5 5 5 4 3 3 3 3 3 4 4 5 5 5 5
5 5 6 6 5 4 3 2 0 2 4 6 7 8 9 8 8 8 7 5 7 13 9 7 10 14 14 8 6 6 5 5 4 4 4 4 4 4 4 5 5 5 5 6
5 6 6 5 4 3 3 3 2 1 2 3 5 6 7 6 6 5 3 10 14 14 8 11 16 16 14 6 6 5 5 5 4 4 4 4 4 4 4 5 5 5 6 7
5 5 5 5 4 4 4 3 2 1 1 1 3 4 5 5 5 6 6 8 14 14 8 12 17 16 10 6 6 6 5 5 5 5 4 4 4 4 5 5 5 6 6 6
4 4 4 4 4 3 3 2 2 2 2 2 2 2 3 3 4 6 6 8 10 13 9 7 9 11 7 7 6 6 5 5 5 4 4 4 5 5 5 5 7 6 6 7
4 4 4 4 3 3 3 3 3 3 3 3 3 3 3 4 5 6 7 7 7 8 7 7 7 7 7 7 6 6 5 4 4 4 4 4 4 5 5 6 6 6 6 7
Wind_Direction
204 190 169 197 193 187 196 196 206 237 244 271 283 293 300 309 325 336 346 349 350 348 344 345 351 357 5 9 13 34 55 64 70 75 79 83 86 91 94 96 99 101 101 99
318 235 212 233 222 208 215 220 236 258 275 271 276 279 285 308 327 334 340 344 346 350 350 352 355 4 18 26 30 51 65 70 77 81 83 85 88 91 92 93 95 96 96 97
288 310 332 261 225 204 202 207 206 237 249 270 287 290 289 302 323 328 336 345 351 352 352 356 5 25 42 45 51 61 67 71 76 84 86 88 91 91 91 92 93 92 92 94
235 4 249 246 218 185 203 229 217 234 255 269 274 286 250 211 296 323 344 352 354 355 3 14 27 45 56 58 62 66 69 73 78 85 88 89 89 90 89 90 90 91 92 95
190 269 281 290 240 172 187 257 227 232 255 267 282 307 243 156 119 55 17 15 13 20 32 40 45 56 65 64 65 69 71 74 78 85 89 89 89 89 89 91 88 87 88 92
189 251 257 258 262 158 136 272 247 216 250 260 211 285 260 140 114 84 61 52 48 48 56 58 56 66 74 70 68 69 72 76 79 83 88 88 88 87 85 86 87 85 80 76
209 244 267 254 224 134 188 237 251 237 249 233 214 220 140 129 117 104 86 74 68 66 63 61 66 77 78 74 71 73 77 78 78 80 83 86 85 85 89 90 87 83 80 68
189 217 254 242 149 185 230 265 259 254 240 221 181 132 137 140 132 124 107 91 84 80 69 60 68 83 84 77 77 80 81 80 76 74 78 83 85 82 83 91 91 87 85 72
202 222 246 234 220 242 229 254 257 234 227 175 164 167 158 150 144 136 125 113 103 99 86 70 67 86 94 87 90 90 86 81 78 75 71 75 84 88 82 82 91 89 85 77
249 262 261 261 257 256 235 237 248 224 202 177 176 168 162 155 151 145 138 131 123 114 104 90 82 87 95 97 94 92 88 83 81 80 75 68 70 78 87 89 90 89 85 76
246 273 291 282 262 260 240 210 191 174 184 183 168 167 164 161 160 156 149 142 136 129 122 116 109 101 97 101 104 98 90 86 82 80 84 77 70 75 90 97 127 119 120 117
229 247 250 283 313 302 234 238 211 183 172 167 170 167 159 160 159 154 151 146 139 135 132 128 121 112 107 110 115 112 104 94 92 91 86 83 79 66 68 77 73 73 75 75
268 309 263 276 300 315 268 246 205 193 184 169 163 161 156 154 155 152 152 152 150 146 140 135 127 119 118 120 116 114 117 115 106 102 101 97 91 87 66 46 52 47 34 22
23 352 309 314 306 305 277 190 145 141 154 160 156 153 150 148 151 156 160 157 150 143 141 140 133 130 131 125 118 115 115 119 117 111 108 102 93 84 77 59 21 358 3 4
5 335 284 288 292 286 183 150 153 165 161 158 159 160 159 160 163 162 155 148 143 143 146 146 143 143 139 131 126 125 122 119 116 111 104 99 92 84 71 57 27 348 337 344
317 309 297 287 279 262 233 214 209 204 189 180 175 174 168 160 153 151 153 155 156 162 162 157 155 155 146 136 130 126 130 137 130 118 108 99 92 85 63 27 354 337 326 316
311 313 314 303 290 273 247 232 220 210 195 189 182 167 153 148 149 155 159 160 156 156 159 159 156 150 145 142 137 135 130 136 133 118 116 119 115 104 32 322 310 305 299 302
279 280 278 278 278 272 261 240 219 205 196 186 166 160 164 168 172 169 159 145 136 138 153 154 150 146 144 143 139 137 135 132 131 135 136 151 156 169 255 283 292 296 297 305
311 302 295 287 278 266 255 240 219 199 180 168 169 176 179 177 168 160 156 159 165 173 177 165 162 153 150 157 146 137 139 140 138 140 148 185 162 217 260 275 283 286 291 296
335 331 327 323 319 296 265 241 194 176 170 168 170 171 173 172 164 163 168 182 189 178 161 163 157 154 154 160 151 142 148 154 160 167 176 195 218 245 260 271 280 285 287 291
345 346 349 350 347 347 348 177 172 176 174 174 179 182 179 171 168 168 175 193 190 161 162 168 161 159 158 162 156 148 157 165 174 185 200 216 234 251 263 274 284 289 291 293
349 352 354 355 358 359 359 25 151 172 176 182 183 174 170 172 176 183 195 191 170 172 166 165 162 171 173 164 152 160 168 177 184 192 206 220 236 253 265 274 278 283 285 287
350 352 353 353 349 341 355 17 39 185 193 195 191 186 185 184 183 187 200 187 167 177 171 171 178 179 175 162 161 171 178 186 194 202 213 223 234 245 258 270 273 277 282 285
353 354 350 346 352 2 356 342 328 285 230 213 204 194 185 183 195 202 174 173 179 180 177 182 183 183 175 160 169 176 185 193 199 207 218 228 236 246 255 264 272 276 278 282
345 343 346 351 353 343 329 327 330 322 283 243 220 202 195 192 193 187 172 176 183 179 175 187 187 184 169 164 176 183 189 198 204 209 218 230 240 250 257 262 267 275 279 280
339 333 325 316 311 309 313 312 301 289 270 260 245 214 197 185 172 168 172 178 184 181 176 178 180 177 166 173 180 187 193 208 223 222 221 233 244 251 259 265 271 272 275 278
329 326 324 326 328 328 318 303 288 280 266 253 251 219 196 186 179 177 176 178 181 176 172 172 168 164 168 174 181 188 193 199 208 217 226 235 243 250 258 265 269 273 277 279
Height
1481 1481 1483 1484 1485 1488 1491 1493 1496 1488 1484 1470 1466 1464 1462 1460 1458 1455 1453 1450 1448 1444 1441 1438 1435 1433 1430 1427 1425 1423 1421 1420 1419 1419 1420 1420 1421 1423 1425 1427 1430 1433 1436 1440
1481 1480 1482 1482 1481 1482 1484 1484 1483 1481 1475 1463 1461 1460 1459 1457 1455 1453 1451 1449 1446 1444 1441 1438 1436 1433 1430 1428 1425 1424 1422 1421 1421 1421 1421 1422 1423 1424 1426 1429 1431 1435 1439 1442
1484 1480 1479 1480 1471 1473 1475 1473 1474 1474 1467 1459 1459 1457 1456 1455 1453 1452 1450 1448 1445 1443 1441 1439 1436 1434 1432 1430 1428 1426 1425 1424 1423 1423 1423 1425 1426 1427 1429 1432 1435 1438 1442 1446
1481 1481 1484 1468 1460 1462 1465 1464 1464 1462 1458 1456 1455 1454 1453 1452 1451 1450 1448 1447 1445 1443 1442 1440 1438 1436 1434 1432 1431 1429 1428 1427 1427 1427 1427 1428 1430 1432 1434 1437 1440 1443 1445 1449
1479 1480 1476 1463 1458 1459 1462 1459 1456 1457 1455 1453 1453 1452 1451 1450 1449 1449 1447 1446 1445 1444 1442 1441 1439 1438 1437 1435 1434 1433 1432 1432 1432 1433 1433 1434 1435 1437 1440 1442 1444 1447 1449 1451
1477 1477 1474 1461 1455 1454 1458 1457 1452 1452 1451 1451 1452 1453 1450 1449 1448 1447 1446 1445 1445 1444 1443 1442 1441 1440 1439 1438 1438 1437 1437 1437 1437 1438 1439 1440 1441 1443 1445 1447 1449 1450 1452 1453
1474 1474 1468 1456 1453 1455 1460 1455 1450 1449 1449 1449 1449 1449 1448 1447 1447 1446 1446 1446 1445 1445 1444 1444 1443 1443 1442 1442 1441 1442 1442 1442 1442 1443 1444 1445 1446 1448 1449 1451 1452 1453 1454 1455
1470 1472 1467 1451 1452 1454 1452 1448 1447 1447 1446 1446 1445 1445 1445 1446 1446 1446 1446 1446 1446 1446 1445 1445 1445 1445 1445 1445 1445 1446 1446 1447 1447 1448 1449 1450 1451 1452 1453 1454 1454 1455 1455 1456
1462 1459 1451 1449 1449 1448 1447 1446 1445 1444 1443 1443 1443 1443 1444 1444 1445 1446 1446 1446 1447 1447 1447 1447 1448 1448 1449 1449 1450 1450 1451 1451 1452 1453 1454 1454 1455 1455 1456 1456 1456 1456 1456 1456
1456 1451 1447 1446 1445 1444 1444 1443 1442 1441 1441 1440 1440 1441 1442 1443 1444 1445 1446 1447 1448 1448 1449 1449 1450 1451 1452 1453 1454 1454 1455 1455 1456 1456 1457 1457 1457 1457 1457 1457 1457 1456 1456 1455
1451 1447 1444 1442 1442 1442 1441 1440 1439 1439 1438 1438 1439 1439 1440 1441 1443 1444 1446 1447 1448 1450 1451 1452 1453 1454 1455 1456 1457 1458 1458 1458 1459 1459 1459 1459 1459 1459 1458 1457 1457 1457 1456 1455
1447 1444 1444 1442 1441 1440 1439 1438 1437 1437 1436 1436 1437 1438 1439 1440 1442 1444 1446 1447 1449 1451 1452 1454 1455 1456 1457 1458 1459 1460 1460 1460 1460 1460 1460 1460 1460 1459 1458 1458 1457 1456 1455 1454
1442 1441 1441 1440 1439 1437 1436 1436 1435 1435 1434 1434 1435 1436 1438 1439 1441 1443 1445 1447 1450 1451 1453 1455 1456 1458 1459 1460 1461 1461 1462 1462 1462 1462 1461 1461 1460 1460 1459 1458 1457 1456 1454 1453
1440 1439 1438 1437 1436 1435 1434 1433 1433 1433 1433 1433 1433 1435 1436 1438 1440 1442 1445 1447 1450 1452 1454 1456 1457 1459 1460 1461 1462 1462 1462 1463 1462 1462 1462 1461 1460 1460 1459 1457 1456 1455 1453 1452
1437 1437 1436 1435 1433 1432 1431 1431 1430 1430 1430 1431 1432 1433 1435 1437 1439 1441 1444 1447 1449 1452 1454 1456 1457 1459 1460 1461 1462 1462 1463 1463 1463 1462 1462 1461 1460 1459 1458 1457 1455 1454 1452 1450
1434 1433 1432 1431 1430 1429 1428 1428 1428 1428 1428 1429 1430 1431 1433 1435 1438 1440 1443 1446 1448 1451 1453 1455 1457 1459 1460 1461 1462 1462 1462 1462 1462 1462 1461 1460 1459 1458 1457 1456 1454 1452 1450 1448
1431 1429 1428 1427 1426 1426 1425 1425 1425 1425 1426 1426 1428 1429 1431 1433 1436 1438 1441 1444 1447 1450 1453 1455 1457 1458 1460 1460 1461 1462 1462 1462 1461 1461 1460 1459 1458 1457 1456 1454 1452 1451 1449 1446
1428 1427 1426 1425 1423 1422 1422 1422 1422 1422 1423 1424 1425 1427 1429 1431 1433 1436 1439 1442 1445 1448 1451 1453 1456 1457 1458 1459 1460 1461 1461 1461 1460 1460 1459 1458 1457 1455 1454 1452 1450 1448 1446 1444
1425 1423 1422 1421 1420 1419 1418 1418 1418 1419 1420 1421 1423 1424 1427 1429 1432 1435 1438 1440 1443 1446 1449 1451 1454 1455 1457 1458 1459 1459 1459 1459 1459 1458 1457 1456 1455 1453 1452 1450 1448 1446 1444 1442
1422 1420 1419 1418 1417 1416 1415 1415 1415 1416 1417 1419 1420 1422 1424 1427 1429 1432 1435 1438 1441 1444 1447 1449 1452 1454 1455 1456 1457 1457 1457 1457 1457 1456 1455 1454 1453 1451 1449 1447 1445 1443 1441 1439
1420 1418 1417 1415 1414 1414 1413 1413 1413 1414 1415 1416 1418 1420 1422 1424 1427 1429 1432 1435 1439 1442 1444 1447 1449 1451 1453 1454 1455 1455 1455 1455 1454 1454 1453 1452 1450 1448 1447 1445 1442 1440 1438 1436
1419 1417 1416 1414 1413 1412 1412 1411 1411 1412 1413 1414 1416 1417 1419 1422 1424 1427 1430 1433 1436 1439 1442 1444 1447 1449 1450 1451 1452 1452 1453 1452 1452 1451 1450 1449 1447 1445 1444 1442 1439 1437 1435 1432
1418 1417 1415 1414 1412 1411 1411 1411 1410 1411 1411 1412 1414 1415 1417 1419 1421 1424 1426 1430 1433 1436 1438 1441 1444 1446 1447 1448 1449 1450 1450 1450 1449 1448 1447 1446 1444 1442 1440 1438 1436 1434 1431 1429
1417 1416 1414 1413 1412 1411 1410 1410 1410 1410 1410 1411 1412 1413 1414 1416 1418 1421 1424 1427 1430 1432 1435 1438 1440 1442 1444 1445 1446 1446 1447 1446 1446 1445 1444 1442 1441 1439 1437 1435 1433 1430 1428 1426
1416 1415 1413 1412 1411 1410 1409 1408 1408 1408 1408 1408 1409 1410 1411 1413 1416 1418 1420 1423 1425 1428 1431 1434 1436 1438 1440 1441 1442 1443 1443 1443 1442 1441 1440 1439 1437 1435 1434 1431 1429 1427 1425 1423
1414 1413 1412 1410 1409 1408 1407 1406 1406 1405 1405 1405 1406 1407 1408 1410 1411 1413 1416 1418 1421 1423 1426 1429 1432 1434 1436 1438 1439 1439 1440 1439 1439 1438 1437 1435 1434 1432 1430 1428 1426 1424 1422 1419
1412 1411 1410 1409 1407 1406 1405 1404 1403 1403 1403 1403 1403 1404 1405 1406 1407 1409 1411 1413 1416 1419 1422 1424 1427 1430 1432 1434 1435 1435 1436 1436 1435 1434 1433 1431 1430 1428 1426 1424 1422 1420 1418 1416